Regional Weather Roundup
Issued by NWS

Home | Current Version | Previous Version | Graphics & Text | Print | Product List | Glossary On
Versions: 1 2 3 4 5 6 7 8 9 10 11 12 13 14 15 16 17 18 19 20 21 22 23 24 25 26 27
000
ASUS45 KSLC 202310
RWRUT

UTAH REGIONAL WEATHER ROUNDUP
NATIONAL WEATHER SERVICE SALT LAKE CITY UT
500 PM MDT FRI OCT 20 2017

UTZ001>011-023>025-210000-

NORTHERN UTAH

CITY           SKY/WX    TMP DP  RH WIND       PRES   REMARKS
BRIGHAM CITY   PTSUNNY   48  31  50 W3        29.87S
HILL AFB       PTSUNNY   45  34  65 SE6       29.87R
LOGAN          LGT RAIN  45  35  68 W3        29.87R
OGDEN          PTSUNNY   46  35  65 SE8       29.87R
SALT LAKE CITY PTSUNNY   48  36  63 SE5       29.88S
TOOELE VALLEY  PTSUNNY   50  32  50 N8        29.88R
WENDOVER       PTSUNNY   51  23  33 NW20G28   29.90R
WEST JORDAN    CLOUDY    45  34  66 NE8       29.89R

$$

UTZ011>015-024>027-210000-

CENTRAL/NORTHEAST UTAH

CITY           SKY/WX    TMP DP  RH WIND       PRES   REMARKS
PROVO AIRPORT  CLOUDY    47  34  60 NW15      29.89R
MOAB/CANYONLAN PTSUNNY   75  24  15 S25G32    29.54F
DELTA          CLOUDY    52  19  28 N18G28    29.83R
PRICE          PTSUNNY   56  30  37 W15G30    29.68R
RICHFIELD      CLOUDY    52  30  43 SE6       29.86R
ROOSEVELT      MOSUNNY   63  28  27 W28G40    29.63R HAZE
VERNAL         LGT RAIN  60  37  42 VRB5      29.61R

$$

UTZ013>016-019>022-027-210000-

SOUTHERN UTAH

CITY           SKY/WX    TMP DP  RH WIND       PRES   REMARKS
BRYCE CANYON   PTSUNNY   56  26  31 SW24      29.82F
CEDAR CITY     PTSUNNY   63  30  28 SW13      29.77R
MILFORD        PTSUNNY   57  29  34 NE24G35   29.78R
ST GEORGE      CLOUDY    76  33  21 W18G28    29.69
HANKSVILLE     PTSUNNY   73  27  17 SW22G30   29.60R
BLANDING         N/A     72  19  14 SW20G30   29.76F

$$

REGIONAL REPORTS     COLORADO/ARIZONA

CITY           SKY/WX    TMP DP  RH WIND       PRES   REMARKS
CRAIG, CO      CLOUDY    67  25  20 SW23G30   29.62F
GRAND JUNCTION CLOUDY    74  26  16 SW12      29.59F
RIFLE, CO      CLOUDY    70  24  17 SW17G26   29.63F
MONTROSE, CO   CLOUDY    70  22  16 SW14G29   29.70F
CORTEZ, CO     CLOUDY    69  26  20 SW13      29.75F
COLORADO CITY    N/A     68  32  26 SW15G26   29.81R
PAGE, AZ       MOSUNNY   77  22  13 W14G33    29.61S
GRAND CANYON   SUNNY     66  23  19 SW22G40   29.85R
KINGMAN, AZ    SUNNY     74  40  29 SW24G32   29.78R
FLAGSTAFF, AZ  MOSUNNY   60  29  30 SW29G45   29.90S

$$

REGIONAL REPORTS    NEVADA/IDAHO/WYOMING

CITY           SKY/WX    TMP DP  RH WIND       PRES   REMARKS
LAS VEGAS, NV  MOSUNNY   79  38  22 W16G22    29.69R
ELY, NY        SUNNY     48   5  17 NW21G31   29.91R
ELKO, NV       CLOUDY    48  19  31 W15       29.94R
POCATELLO, ID  MOSUNNY   44  31  60 SW35G44   29.82R
BURLEY, ID     LGT RAIN  45  32  60 W21G30    29.86R
FORT BRIDGER,  LGT SNOW  36  33  90 W26G36    29.85R WCI  24
EVANSTON, WY   CLOUDY    34  31  88 SW18      29.86R WCI  23
ROCK SPRINGS,  CLOUDY    44  25  47 W30G45    29.74R

$$




USA.gov is the U.S. government's official web portal to all federal, state and local government web resources and services.